When you browse on this site, cookies collect data to enhance your experience and personalize the content and advertising you see.
Visit our Privacy Policy to learn more. By continuing to use the site, you agree to this use of cookies and data.

Hourly Weather Crete

Today, 4 August, Tuesday

Time Temperature Precipitation Wind Pressure Humidity
00:00 +21°C° 0 mm 2 mps 705 mmHg 40%
01:00 +21°C° 0 mm 2 mps 705 mmHg 40%
02:00 +21°C° 0 mm 3 mps 705 mmHg 39%
03:00 +21°C° 0 mm 3 mps 704 mmHg 42%
04:00 +21°C° 0 mm 3 mps 704 mmHg 46%
05:00 +20°C° 0 mm 3 mps 704 mmHg 50%
06:00 +22°C° 0 mm 3 mps 705 mmHg 46%
07:00 +25°C° 0 mm 3 mps 705 mmHg 42%
08:00 +27°C° 0 mm 3 mps 706 mmHg 39%
09:00 +29°C° 0 mm 4 mps 706 mmHg 36%
10:00 +30°C° 0 mm 4 mps 706 mmHg 33%
11:00 +32°C° 0 mm 4 mps 706 mmHg 31%
12:00 +32°C° 0 mm 4 mps 706 mmHg 30%
13:00 +32°C° 0 mm 4 mps 706 mmHg 30%
14:00 +32°C° 0 mm 4 mps 706 mmHg 30%
15:00 +32°C° 0 mm 4 mps 706 mmHg 31%
16:00 +30°C° 0 mm 4 mps 705 mmHg 33%
17:00 +30°C° 0 mm 3 mps 705 mmHg 35%
18:00 +28°C° 0 mm 3 mps 705 mmHg 40%
19:00 +26°C° 0 mm 2 mps 705 mmHg 46%
20:00 +24°C° 0 mm 2 mps 704 mmHg 51%
21:00 +24°C° 0 mm 2 mps 704 mmHg 52%
22:00 +24°C° 0 mm 2 mps 704 mmHg 53%
23:00 +24°C° 0 mm 2 mps 705 mmHg 54%

Tomorrow, 5 August, Wednesday

Time Temperature Precipitation Wind Pressure Humidity
00:00 +24°C° 0 mm 2 mps 704 mmHg 54%
01:00 +23°C° 0 mm 2 mps 704 mmHg 54%
02:00 +23°C° 0 mm 2 mps 703 mmHg 54%
03:00 +23°C° 0 mm 2 mps 703 mmHg 55%
04:00 +23°C° 0 mm 2 mps 703 mmHg 55%
05:00 +23°C° 0 mm 2 mps 703 mmHg 56%
06:00 +25°C° 0 mm 3 mps 703 mmHg 52%
07:00 +27°C° 0 mm 3 mps 704 mmHg 48%
08:00 +29°C° 0 mm 3 mps 704 mmHg 43%
09:00 +30°C° 0 mm 3 mps 704 mmHg 39%
10:00 +32°C° 0 mm 4 mps 705 mmHg 36%
11:00 +34°C° 0 mm 4 mps 705 mmHg 32%
12:00 +34°C° 0 mm 4 mps 705 mmHg 32%
13:00 +34°C° 0 mm 5 mps 705 mmHg 32%
14:00 +34°C° 0 mm 5 mps 705 mmHg 32%
15:00 +33°C° 0 mm 5 mps 705 mmHg 35%
16:00 +33°C° 0 mm 5 mps 705 mmHg 38%
17:00 +32°C° 0 mm 4 mps 705 mmHg 42%
18:00 +29°C° 0 mm 3 mps 704 mmHg 46%
19:00 +27°C° 0 mm 2 mps 704 mmHg 49%
20:00 +25°C° 0 mm 2 mps 704 mmHg 53%
21:00 +25°C° 0 mm 2 mps 704 mmHg 51%
22:00 +25°C° 0 mm 2 mps 704 mmHg 48%
23:00 +25°C° 0 mm 2 mps 704 mmHg 46%

Day after tomorrow, 6 August, Thursday

Time Temperature Precipitation Wind Pressure Humidity
00:00 +24°C° 0 mm 2 mps 704 mmHg 46%
01:00 +24°C° 0 mm 2 mps 704 mmHg 47%
02:00 +23°C° 0 mm 2 mps 703 mmHg 47%
03:00 +23°C° 0 mm 2 mps 703 mmHg 49%
04:00 +23°C° 0 mm 2 mps 703 mmHg 51%
05:00 +23°C° 0 mm 2 mps 703 mmHg 52%
06:00 +25°C° 0 mm 2 mps 704 mmHg 46%
07:00 +27°C° 0 mm 2 mps 704 mmHg 40%
08:00 +30°C° 0 mm 2 mps 705 mmHg 34%
09:00 +31°C° 0 mm 3 mps 705 mmHg 34%
10:00 +33°C° 0 mm 4 mps 706 mmHg 33%
11:00 +34°C° 0 mm 4 mps 706 mmHg 33%
12:00 +33°C° 0 mm 4 mps 706 mmHg 34%
13:00 +33°C° 0 mm 4 mps 706 mmHg 34%
14:00 +33°C° 0 mm 5 mps 706 mmHg 35%
15:00 +32°C° 0 mm 4 mps 706 mmHg 39%
16:00 +30°C° 0 mm 4 mps 706 mmHg 42%
17:00 +29°C° 0 mm 3 mps 706 mmHg 46%
18:00 +27°C° 0 mm 3 mps 705 mmHg 57%
19:00 +25°C° 0 mm 3 mps 705 mmHg 68%
20:00 +23°C° 0 mm 2 mps 705 mmHg 79%
21:00 +21°C° 0 mm 2 mps 705 mmHg 80%
22:00 +21°C° 0 mm 2 mps 705 mmHg 81%
23:00 +21°C° 0 mm 2 mps 705 mmHg 82%

7 August, Friday

Time Temperature Precipitation Wind Pressure Humidity
00:00 +20°C° 0 mm 2 mps 705 mmHg 84%
01:00 +20°C° 0 mm 2 mps 704 mmHg 86%
02:00 +19°C° 0 mm 2 mps 704 mmHg 88%
03:00 +19°C° 0 mm 2 mps 704 mmHg 82%
04:00 +19°C° 0 mm 2 mps 704 mmHg 77%
05:00 +20°C° 0 mm 1 mps 704 mmHg 72%
06:00 +21°C° 0 mm 2 mps 704 mmHg 62%
07:00 +24°C° 0 mm 2 mps 705 mmHg 53%
08:00 +26°C° 0 mm 2 mps 705 mmHg 44%
09:00 +27°C° 0 mm 3 mps 706 mmHg 42%
10:00 +28°C° 0 mm 4 mps 706 mmHg 40%
11:00 +30°C° 0 mm 5 mps 707 mmHg 39%
12:00 +29°C° 0 mm 5 mps 707 mmHg 42%
13:00 +29°C° 0 mm 5 mps 706 mmHg 46%
14:00 +29°C° 0 mm 5 mps 706 mmHg 49%
15:00 +28°C° 0 mm 5 mps 706 mmHg 53%
16:00 +27°C° 0 mm 5 mps 706 mmHg 56%
17:00 +26°C° 0 mm 5 mps 706 mmHg 60%
18:00 +25°C° 0 mm 4 mps 706 mmHg 66%
19:00 +22°C° 0 mm 3 mps 705 mmHg 72%
20:00 +21°C° 0 mm 3 mps 705 mmHg 78%
21:00 +20°C° 0 mm 3 mps 705 mmHg 80%
22:00 +20°C° 0 mm 3 mps 705 mmHg 81%
23:00 +19°C° 0 mm 3 mps 705 mmHg 82%

8 August, Saturday

Time Temperature Precipitation Wind Pressure Humidity
00:00 +19°C° 0 mm 2 mps 704 mmHg 80%
01:00 +19°C° 0 mm 2 mps 704 mmHg 79%
02:00 +18°C° 0 mm 2 mps 704 mmHg 78%
03:00 +18°C° 0 mm 2 mps 704 mmHg 76%
04:00 +18°C° 0 mm 2 mps 703 mmHg 75%
05:00 +18°C° 0 mm 2 mps 703 mmHg 74%
06:00 +20°C° 0 mm 2 mps 703 mmHg 66%
07:00 +23°C° 0 mm 2 mps 704 mmHg 57%
08:00 +25°C° 0 mm 2 mps 704 mmHg 49%
09:00 +26°C° 0 mm 3 mps 704 mmHg 46%
10:00 +28°C° 0 mm 3 mps 704 mmHg 43%
11:00 +29°C° 0 mm 4 mps 704 mmHg 41%
12:00 +29°C° 0 mm 5 mps 704 mmHg 43%
13:00 +28°C° 0 mm 5 mps 704 mmHg 46%
14:00 +28°C° 0 mm 5 mps 704 mmHg 48%
15:00 +27°C° 0.3 mm 5 mps 704 mmHg 52%
16:00 +27°C° 0.3 mm 5 mps 704 mmHg 55%
17:00 +26°C° 0.3 mm 5 mps 703 mmHg 58%
18:00 +25°C° 0.3 mm 4 mps 703 mmHg 66%
19:00 +22°C° 0.3 mm 4 mps 703 mmHg 74%
20:00 +21°C° 0.3 mm 3 mps 703 mmHg 82%
21:00 +20°C° 0 mm 3 mps 703 mmHg 83%
22:00 +20°C° 0 mm 3 mps 702 mmHg 84%
23:00 +19°C° 0 mm 2 mps 702 mmHg 85%

9 August, Sunday

Time Temperature Precipitation Wind Pressure Humidity
00:00 +19°C° 0 mm 2 mps 702 mmHg 84%
01:00 +19°C° 0 mm 2 mps 702 mmHg 83%
02:00 +19°C° 0 mm 2 mps 701 mmHg 82%
03:00 +19°C° 0 mm 3 mps 701 mmHg 84%
04:00 +19°C° 0 mm 3 mps 701 mmHg 86%
05:00 +19°C° 0 mm 3 mps 701 mmHg 88%
06:00 +20°C° 0.1 mm 3 mps 701 mmHg 84%
07:00 +21°C° 0.1 mm 4 mps 701 mmHg 79%
08:00 +22°C° 0.1 mm 4 mps 702 mmHg 75%
09:00 +23°C° 0.1 mm 4 mps 702 mmHg 72%
10:00 +25°C° 0.1 mm 5 mps 702 mmHg 68%
11:00 +26°C° 0.1 mm 5 mps 703 mmHg 65%
12:00 +26°C° 0.1 mm 5 mps 703 mmHg 65%
13:00 +26°C° 0.1 mm 5 mps 703 mmHg 65%
14:00 +26°C° 0.1 mm 5 mps 703 mmHg 65%
15:00 +26°C° 0 mm 5 mps 703 mmHg 64%
16:00 +26°C° 0 mm 6 mps 702 mmHg 64%
17:00 +26°C° 0 mm 6 mps 702 mmHg 63%
18:00 +23°C° 0 mm 5 mps 702 mmHg 69%
19:00 +22°C° 0 mm 5 mps 702 mmHg 74%
20:00 +21°C° 0 mm 5 mps 702 mmHg 80%
21:00 +21°C° 0 mm 5 mps 703 mmHg 79%
22:00 +21°C° 0 mm 4 mps 703 mmHg 77%
23:00 +21°C° 0 mm 4 mps 703 mmHg 76%
Show more